Location: Bismarck
(46.7731°N, 100.8200°W)
Time: 08:08:09
(UTC-05:00)

ISS - Visible Passes

Search period start: 30 August 2016 00:00
Search period end: 09 September 2016 00:00
Orbit: 402 x 406 km, 51.6° (Epoch: 29 August)

Date Brightness Start Highest point End Pass type
(mag) Time Alt. Az. Time Alt. Az. Time Alt. Az.
04 Sep -0.5 06:08:47 10° SSE 06:10:04 12° SE 06:11:20 10° ESE visible
06 Sep -1.4 05:58:40 10° SSW 06:01:17 24° SE 06:04:00 10° E visible
07 Sep -0.9 05:08:32 14° SE 05:09:02 14° SE 05:10:52 10° E visible
07 Sep -3.2 06:41:46 10° WSW 06:45:02 81° SSE 06:48:21 10° ENE visible
08 Sep -2.7 05:50:59 24° SSW 05:52:37 48° SSE 05:55:49 10° ENE visible
